Terminal Aerodrome Forecast
Issued by NWS Milwaukee/Sullivan, WI

Home | Current Version | Previous Version | Text Only | Print | Product List | Glossary On
Versions: 1 2 3 4 5 6 7 8 9 10 11 12 13 14 15 16 17 18 19 20 21 22 23 24 25 26 27 28 29 30 31 32 33 34 35 36 37 38 39 40 41 42 43 44 45 46 47 48 49 50
000
FTUS43 KMKX 282320
TAFMSN
TAF
KMSN 282320Z 2900/2924 13009KT P6SM VCSH FEW040 BKN080
     FM290100 13007KT P6SM -SHRA BKN035 OVC070
     FM290500 14007KT P6SM VCSH OVC040
     FM291500 18010G15KT P6SM BKN050
     FM292200 18008KT P6SM VCTS SCT040CB BKN070=

USA.gov is the U.S. government's official web portal to all federal, state and local government web resources and services.